AKDT,Max TemperatureF,Mean TemperatureF,Min TemperatureF,Max Dew PointF,MeanDew PointF,Min DewpointF,Max Humidity, Mean Humidity, Min Humidity, Max Sea Level PressureIn, Mean Sea Level PressureIn, Min Sea Level PressureIn, Max VisibilityMiles, Mean VisibilityMiles, Min VisibilityMiles, Max Wind SpeedMPH, Mean Wind SpeedMPH, Max Gust SpeedMPH,PrecipitationIn, CloudCover, Events, WindDirDegrees
2013-3-1,33,17,1,23,13,0,91,80,54,29.99,29.69,29.45,10,7,0,15,4,,0.08,6,Fog-Snow,232
2013-3-2,30,15,-4,14,5,-7,92,78,44,30.25,30.10,29.92,10,10,10,7,3,,0.00,2,,320
2013-3-3,21,6,-8,10,0,-12,92,80,49,30.63,30.44,30.17,10,10,10,6,3,,0.00,5,,319
2013-3-4,24,6,-11,10,-3,-16,88,76,49,30.71,30.61,30.35,10,10,10,5,1,,0.00,2,,328
2013-3-5,27,10,-7,10,2,-7,88,72,41,30.48,30.26,29.96,10,10,10,5,2,,0.00,3,,327
2013-3-6,25,7,-11,8,-2,-15,87,71,41,30.12,30.07,29.89,10,10,10,6,2,,0.00,2,,334
2013-3-7,32,14,-5,16,5,-9,87,67,40,30.05,29.85,29.60,10,10,10,16,5,,0.00,5,,103
2013-3-8,39,21,3,26,20,13,78,66,45,29.82,29.73,29.63,10,10,10,20,6,29,0.00,5,,162
2013-3-9,36,30,23,23,16,14,78,55,30,30.08,29.94,29.83,10,10,10,16,10,,0.00,5,,168
2013-3-10,33,17,1,18,11,1,88,62,38,30.25,30.16,30.03,10,10,10,14,4,23,0.00,6,,121
2013-3-11,32,21,10,16,8,3,84,56,24,30.35,30.29,30.18,10,10,10,24,9,37,0.00,4,,353
2013-3-12,19,14,10,2,-8,-11,47,31,16,30.32,30.25,30.14,10,10,10,30,24,41,0.00,1,,13
2013-3-13,16,10,3,-8,-11,-14,53,36,16,30.14,30.04,29.85,10,10,10,22,15,33,0.00,3,,25
2013-3-14,19,7,-5,-3,-7,-13,79,52,22,30.14,30.06,29.88,10,10,6,9,5,,0.00,5,Snow,343
2013-3-15,16,-4,-23,-6,-14,-29,78,58,24,30.09,30.02,29.96,10,10,10,8,2,,0.00,3,Snow,19
2013-3-16,21,2,-18,-2,-11,-22,78,56,18,30.19,30.13,29.93,10,10,10,6,2,,0.00,2,,306
2013-3-17,21,2,-18,-1,-11,-22,82,59,23,30.26,30.18,29.95,10,10,10,6,3,,0.00,0,,249
2013-3-18,23,2,-18,-1,-10,-22,82,58,19,30.12,30.02,29.78,10,10,10,8,3,,0.00,2,,340
2013-3-19,18,7,-4,-7,-8,-11,83,46,18,29.97,29.94,29.78,10,10,10,23,11,30,0.00,1,,343
2013-3-20,16,6,-4,-9,-13,-16,56,42,16,30.03,29.94,29.78,10,10,10,13,10,23,0.00,1,,327
2013-3-21,17,-2,-22,-6,-15,-26,78,49,18,30.30,30.22,29.99,10,10,10,10,5,,0.00,1,,254
2013-3-22,28,10,-7,14,5,-9,60,52,32,30.22,30.04,29.79,10,10,10,31,13,43,0.00,7,,152
2013-3-23,33,24,16,23,19,15,93,74,48,29.89,29.77,29.64,10,6,0,36,21,48,0.28,7,Fog-Snow,119
2013-3-24,26,21,16,21,16,11,92,85,72,29.88,29.75,29.49,10,7,2,8,4,,0.02,8,Snow,344
2013-3-25,36,26,15,22,13,-1,88,64,24,29.54,29.38,29.30,10,10,10,22,7,32,0.00,7,Snow,151
2013-3-26,24,12,0,9,0,-7,84,60,25,30.12,29.88,29.56,10,10,3,13,6,,0.00,5,Snow,292
2013-3-27,24,10,-5,5,-4,-12,84,62,23,30.31,30.22,29.98,10,10,9,7,2,,0.00,5,Snow,353
2013-3-28,30,13,-4,19,4,-10,76,58,33,30.28,30.18,29.97,10,10,10,22,8,32,0.00,6,,89
2013-3-29,35,20,6,25,18,12,82,61,40,30.08,30.00,29.89,10,10,10,20,14,28,0.00,7,,133
2013-3-30,39,30,21,30,24,20,92,77,40,30.25,30.12,29.98,10,9,3,10,2,,0.00,8,Rain-Snow,204
2013-3-31,42,28,15,27,22,12,92,74,42,30.30,30.21,30.04,10,10,5,12,5,,0.01,6,Snow,284